DW4722 Weather Reports


time (UTC)temp
C
wind
direction
speed
KPH
gust
KPH
rain 1hr
cm
rain 24hr
cm
rain mn
cm
humidity
%
barometer
mb
20260504120105 10 205 9.7 0.0 0.00 0.00 0.00 65 1008.0
20260504081513 8 197 4.8 0.0 0.00 0.00 0.00 67 1008.4
20260504044557 8 281 0.0 0.0 0.00 0.00 0.00 66 1009.3
20260504043054 9 285 0.0 0.0 0.00 0.00 0.00 66 1009.5
20260504041553 9 288 0.0 0.0 0.00 0.00 0.00 66 1009.6
20260504040051 9 288 1.6 0.0 0.00 0.00 0.00 66 1009.6
20260504034551 8 306 4.8 0.0 0.00 0.00 0.00 66 1009.4
20260504033054 8 303 3.2 0.0 0.00 0.00 0.00 65 1009.5
20260504031559 7 250 1.6 0.0 0.00 0.00 0.00 62 1009.2
20260504030050 6 261 0.0 0.0 0.00 0.00 0.00 61 1009.3
20260504024557 6 261 0.0 0.0 0.00 0.00 0.00 62 1009.2
20260504023048 6 261 0.0 0.0 0.00 0.00 0.00 62 1009.3
20260504021552 7 261 0.0 0.0 0.00 0.00 0.00 61 1009.2
20260504020050 7 261 0.0 0.0 0.00 0.00 0.00 56 1009.3
20260504014546 7 261 0.0 0.0 0.00 0.00 0.00 53 1009.3
20260504013054 8 261 0.0 0.0 0.00 0.00 0.00 50 1009.3
20260504011546 8 275 0.0 0.0 0.00 0.00 0.00 49 1009.0
20260504010045 9 289 0.0 0.0 0.00 0.00 0.00 46 1008.8
20260504004559 10 289 0.0 0.0 0.00 0.00 0.00 41 1008.6
20260504003044 10 289 1.6 0.0 0.00 0.00 0.00 39 1008.4
20260504001546 11 284 1.6 0.0 0.00 0.00 0.00 38 1008.2
20260504000044 11 295 6.4 0.0 0.00 0.00 0.00 36 1007.9
20260503234543 12 281 6.4 0.0 0.00 0.00 0.00 34 1007.6
20260503233042 12 271 4.8 0.0 0.00 0.00 0.00 31 1007.4
20260503231549 13 288 3.2 0.0 0.00 0.00 0.00 38 1007.1
20260503230041 13 53 1.6 0.0 0.00 0.00 0.00 33 1007.0
20260503224541 13 355 0.0 0.0 0.00 0.00 0.00 34 1006.8
20260503223040 13 313 0.0 0.0 0.00 0.00 0.00 36 1006.8
20260503221539 13 291 3.2 0.0 0.00 0.00 0.00 38 1006.9
20260503220039 13 259 4.8 0.0 0.00 0.00 0.00 35 1006.8
20260503214535 13 344 1.6 0.0 0.00 0.00 0.00 37 1006.9
20260503213035 13 310 3.2 0.0 0.00 0.00 0.00 36 1007.0
20260503211538 13 262 6.4 0.0 0.00 0.00 0.00 37 1007.1
20260503210033 13 242 8.0 0.0 0.00 0.00 0.00 39 1007.1
20260503204531 12 32 6.4 0.0 0.00 0.00 0.00 39 1007.3
20260503203025 12 306 9.7 0.0 0.00 0.00 0.00 42 1007.5
20260503201521 11 295 8.0 0.0 0.00 0.00 0.00 42 1007.6
20260503200020 11 279 8.0 0.0 0.00 0.00 0.00 41 1007.7
20260503194517 11 314 8.0 0.0 0.00 0.00 0.00 44 1007.9
20260503193031 11 314 6.4 0.0 0.00 0.00 0.00 44 1008.1
20260503191515 11 246 3.2 0.0 0.00 0.00 0.00 44 1008.2
20260503190023 11 329 3.2 0.0 0.00 0.00 0.00 46 1008.3
20260503184511 11 254 6.4 0.0 0.00 0.00 0.00 45 1008.4
20260503183007 10 317 1.6 0.0 0.00 0.00 0.00 47 1008.6
20260503181506 10 285 4.8 0.0 0.00 0.00 0.00 43 1008.7
20260503180005 10 293 3.2 0.0 0.00 0.00 0.00 45 1008.8
20260503174506 10 229 3.2 0.0 0.00 0.00 0.00 46 1008.9
20260503173014 10 302 4.8 0.0 0.00 0.00 0.00 47 1008.9
20260503171503 10 313 6.4 0.0 0.00 0.00 0.00 45 1008.9